CST,Max TemperatureF,Mean TemperatureF,Min TemperatureF,Max Dew PointF,MeanDew PointF,Min DewpointF,Max Humidity, Mean Humidity, Min Humidity, Max Sea Level PressureIn, Mean Sea Level PressureIn, Min Sea Level PressureIn, Max VisibilityMiles, Mean VisibilityMiles, Min VisibilityMiles, Max Wind SpeedMPH, Mean Wind SpeedMPH, Max Gust SpeedMPH,PrecipitationIn, CloudCover, Events, WindDirDegrees
2013-2-1,0,-8,-16,-6,-16,-24,78,65,50,30.26,30.17,30.07,10,9,2,8,4,,0.00,4,Snow,236
2013-2-2,8,-2,-13,3,-5,-17,85,71,52,30.16,30.07,29.96,10,8,2,8,1,,0.00,5,Snow,221
2013-2-3,14,8,1,3,0,-4,79,67,53,30.04,29.99,29.96,10,10,7,14,6,20,0.00,6,Snow,306
2013-2-4,12,2,-7,9,-4,-13,85,60,45,30.06,29.95,29.69,10,9,2,14,4,17,0.00,5,Snow,199
2013-2-5,24,10,-4,21,9,-8,86,74,54,30.05,29.84,29.61,10,9,0,15,7,21,0.00,4,Snow,292
2013-2-6,21,8,-4,19,9,-8,93,83,78,30.07,30.03,29.95,10,8,0,9,2,,0.03,7,Snow,91
2013-2-7,28,22,17,21,19,14,93,83,69,30.27,30.15,30.04,10,9,3,10,5,20,0.00,7,,37
2013-2-8,26,10,-5,18,7,-9,93,75,59,30.38,30.31,30.21,10,10,10,7,2,,0.00,1,,130
2013-2-9,30,24,17,28,22,10,93,84,73,30.20,30.05,29.94,10,7,2,15,7,17,0.00,8,Snow,161
2013-2-10,32,29,26,30,25,23,100,91,80,29.93,29.57,29.33,10,3,0,14,8,23,0.29,8,Snow,69
2013-2-11,30,21,12,27,18,9,86,77,64,30.00,29.73,29.35,10,9,3,21,13,29,0.00,8,Snow,310
2013-2-12,32,16,0,19,13,-6,93,76,60,30.00,29.87,29.76,10,10,1,10,3,16,0.00,4,Snow,223
2013-2-13,35,27,19,30,23,16,93,80,60,29.76,29.66,29.60,10,8,1,8,3,,0.15,7,Rain-Snow,214
2013-2-14,30,22,14,27,12,0,93,64,31,30.14,29.91,29.65,10,9,1,20,5,24,0.00,3,Snow,332
2013-2-15,17,10,3,1,0,-4,85,63,45,30.28,30.23,30.15,10,10,10,14,8,21,0.00,3,,317
2013-2-16,17,5,-7,3,-2,-13,85,68,49,30.22,30.16,30.10,10,10,10,6,2,,0.00,2,,254
2013-2-17,30,10,-9,18,7,-15,85,70,51,30.10,29.88,29.64,10,10,10,14,3,22,0.00,3,,139
2013-2-18,32,20,6,27,15,0,86,75,67,29.79,29.61,29.50,10,10,5,25,8,34,0.00,7,Snow,306
2013-2-19,8,4,0,0,-7,-11,72,61,48,30.34,30.08,29.81,10,7,0,25,18,33,0.00,3,Snow,329
2013-2-20,17,5,-7,0,-6,-13,78,59,41,30.45,30.42,30.33,10,10,10,7,3,,0.00,0,,34
2013-2-21,24,8,-7,16,3,-13,85,68,50,30.47,30.34,30.14,10,10,10,12,3,17,0.00,1,,63
2013-2-22,28,22,17,21,18,14,93,83,69,30.14,29.93,29.84,10,6,0,9,5,,0.07,8,Fog-Snow,58
2013-2-23,33,22,10,25,17,7,93,79,60,29.93,29.85,29.81,10,10,0,7,2,,0.00,6,Fog-Snow,331
2013-2-24,33,18,3,21,11,0,92,77,60,30.09,30.04,29.94,10,10,7,7,1,,0.00,1,,238
2013-2-25,32,18,3,21,10,0,92,78,60,30.10,30.08,30.04,10,8,0,7,1,,0.00,4,Fog,249
2013-2-26,37,20,3,25,15,0,92,75,56,30.08,30.00,29.92,10,8,4,12,2,23,0.00,2,,46
2013-2-27,41,32,24,23,22,19,86,69,42,30.05,29.95,29.89,10,10,10,12,6,17,0.00,2,,24
2013-2-28,32,26,19,21,17,12,74,64,51,30.26,30.17,30.05,10,10,10,9,5,,0.00,5,,36